GSAT0208 (PRN E08)

Last updated on Feb. 21, 2020, 4:44 a.m. UTC

1 41175U 15079B   20050.87879654 -.00000035  00000-0  00000-0 0  9990
2 41175  54.9747 164.7420 0002871 315.6497  44.2883  1.70473869 25992
UTC
Height (km)
Latitude
Longitude
Inclination
Orbital Period
UTC large
Height (km)
Speed (km/s)
/
Latitude / Longitude
Inclination (degrees)
Orbital Period (minutes)
Azimuth
Elevation
Range (km)
Doppler Factor
iOS Compass Heading
iOS Angle

Next 30 passes for location: Hong Kong

Rise time Rise Azimuth (degrees) Set time Set Azimuth (degrees) Duration Max altitude (degrees)

No matching passes for this satellites